This is the latest recevied weather packets stored in our database for station/object K4CRS-13. If no packets are shown the sender has not sent any weather packets the latest 10 day(s).
| Time | Temp. | Humidity | Pressure | Rain* | Wind** | Luminosity | Snow |
|---|---|---|---|---|---|---|---|
| 1787437724 | 32.78° C | 56% | 1049.7 hPa | 0 mm | - | 138 W/m² | - |
| 1787437420 | 32.78° C | 56% | 1049.8 hPa | 0 mm | - | 145 W/m² | - |
| 1787437116 | 33.33° C | 55% | 1050 hPa | 0 mm | - | 138 W/m² | - |
| 1787436812 | 33.33° C | 54% | 1049.7 hPa | 0 mm | - | 158 W/m² | - |
| 1787436509 | 33.33° C | 55% | 1049.9 hPa | 0 mm | - | 175 W/m² | - |
| 1787436208 | 33.33° C | 56% | 1050 hPa | 0 mm | - | 183 W/m² | - |
| 1787435907 | 33.33° C | 54% | 1050.2 hPa | 0 mm | - | 218 W/m² | - |
| 1787435604 | 33.33° C | 53% | 1050 hPa | 0 mm | - | 191 W/m² | - |
| 1787435300 | 33.89° C | 52% | 1050 hPa | 0 mm | - | 238 W/m² | - |
| 1787434996 | 34.44° C | 52% | 1049.8 hPa | 0 mm | - | 284 W/m² | - |
| 1787434692 | 33.89° C | 52% | 1049.6 hPa | 0 mm | - | 313 W/m² | - |
| 1787434389 | 33.33° C | 52% | 1049.5 hPa | 0 mm | - | 322 W/m² | - |
| 1787434089 | 33.89° C | 53% | 1049.5 hPa | 0 mm | - | 347 W/m² | - |
| 1787433785 | 33.89° C | 52% | 1049.6 hPa | 0 mm | - | 280 W/m² | - |
| 1787433480 | 34.44° C | 52% | 1049.7 hPa | 0 mm | - | 272 W/m² | - |
| 1787433175 | 33.89° C | 51% | 1049.9 hPa | 0 mm | - | 443 W/m² | - |
| 1787432873 | 33.89° C | 52% | 1049.8 hPa | 0 mm | - | 498 W/m² | - |
| 1787432568 | 33.89° C | 51% | 1049.7 hPa | 0 mm | - | 510 W/m² | - |
| 1787432267 | 33.89° C | 53% | 1049.8 hPa | 0 mm | - | 497 W/m² | - |
| 1787431962 | 33.89° C | 52% | 1049.9 hPa | 0 mm | - | 509 W/m² | - |
| 1787431661 | 34.44° C | 50% | 1049.8 hPa | 0 mm | - | 142 W/m² | - |
| 1787431357 | 35° C | 51% | 1050 hPa | 0 mm | - | 220 W/m² | - |
| 1787431053 | 34.44° C | 50% | 1050 hPa | 0 mm | - | 571 W/m² | - |
| 1787430749 | 33.89° C | 50% | 1050 hPa | 0 mm | - | 575 W/m² | - |
| 1787430445 | 33.89° C | 49% | 1050.2 hPa | 0 mm | - | 580 W/m² | - |
* Rain latest hour (hover to see other rain measurements)
** Current wind speed in m/s (hover to see current wind gust speed)